Regional Weather Roundup
Issued by NWS

Home | Current Version | Previous Version | Text Only | Print | Product List | Glossary Off
Versions: 1 2 3 4 5 6 7 8 9 10 11 12 13 14 15 16 17 18 19 20 21 22 23 24 25 26 27 28 29 30 31 32 33 34 35 36 37 38 39 40 41 42 43 44 45 46 47 48 49 50

000
ASUS43 KMKX 122111
RWRWI

WISCONSIN REGIONAL WEATHER ROUNDUP
NATIONAL WEATHER SERVICE MILWAUKEE/SULLIVAN WI
400 PM CDT SAT JUL 12 2014

NOTE: "FAIR" INDICATES FEW OR NO CLOUDS BELOW 12,000 FEET WITH NO
SIGNIFICANT WEATHER AND/OR OBSTRUCTIONS TO VISIBILITY.

WIZ001-002-006>008-014>016-023>028-122200-
NORTHWEST WISCONSIN

CITY           SKY/WX    TMP DP  RH WIND       PRES   REMARKS
SUPERIOR ARPT  CLOUDY    73  63  69 SW7       29.93F
ASHLAND        CLOUDY    71  62  73 CALM      29.94F
HAYWARD        CLOUDY    74  64  71 CALM      29.95S
SIREN          LGT RAIN  72  65  78 W6        29.97R
RICE LAKE      RAIN      67  63  89 SE9       29.99R
LADYSMITH      TSTM      73  71  92 SW3       29.97F
EAU CLAIRE     TSTM      67  64  90 N22G49    29.98R VSB 3/4
MENOMONIE      HVY RAIN  67  65  93 NW14      29.99S
NEW RICHMOND   LGT RAIN  66  65  97 SW7       29.99S
OSCEOLA        CLOUDY    72  70  91 SW12      30.00R
$$

WIZ003>005-009-010-017-018-122200-
NORTH CENTRAL WISCONSIN

CITY           SKY/WX    TMP DP  RH WIND       PRES   REMARKS
WOODRUFF       CLOUDY    80  67  65 SW5       29.94F HX  82
RHINELANDER    CLOUDY    75  67  76 S8        29.96F
EAGLE RIVER    CLOUDY    76  63  63 SW8       29.94F
LAND O LAKES   CLOUDY    76  65  69 SW5       29.95F
PHILLIPS       CLOUDY    71  64  79 E12G21    29.95F VSB 1/2
TOMAHAWK       LGT RAIN  73  68  83 CALM      29.95F
MEDFORD        LGT RAIN  72  69  90 S8        29.96F
MERRILL        CLOUDY    75  69  81 SW7       29.95F
$$

WIZ029-030-035-036-043>047-122200-
CENTRAL WISCONSIN

CITY           SKY/WX    TMP DP  RH WIND       PRES   REMARKS
WAUSAU         LGT RAIN  74  70  87 S9        29.95F
MOSINEE        DRIZZLE   73  72  94 S8        29.98F
MARSHFIELD     LGT RAIN  73  71  93 SW12G22   29.99S FOG
STEVENS POINT  DRIZZLE   74  67  80 SW8       29.97F
WAUPACA        CLOUDY    80  70  73 SW6       29.96F HX  83
WAUTOMA        LGT RAIN  79  72  78 SW6       29.96F HX  82
WISC RAPIDS    CLOUDY    76  70  82 SW6       29.98S
CAMP DOUGLAS   NOT AVBL
$$

WIZ011>013-019>022-031-037>040-048>050-122200-
NORTHEAST WISCONSIN

CITY           SKY/WX    TMP DP  RH WIND       PRES   REMARKS
ANTIGO         CLOUDY    74  68  82 SW8       29.96F
STURGEON BAY   CLOUDY    75  66  73 SE5       29.94F
GREEN BAY      CLOUDY    80  69  69 W7        29.93F HX  83
MANITOWOC      CLOUDY    71  65  81 CALM      29.94F
APPLETON       CLOUDY    77  66  69 SW8       29.96F
CLINTONVILLE   CLOUDY    77  68  73 SW9       29.94F
OSHKOSH        CLOUDY    76  69  79 SW7       29.95F
$$

WIZ032>034-041-042-053>061-122200-
SOUTHWEST WISCONSIN

CITY           SKY/WX    TMP DP  RH WIND       PRES   REMARKS
LA CROSSE      LGT RAIN  70  67  90 SW8       29.98R FOG
SPARTA         RAIN      67  65  93 N7        29.97F
VIROQUA        CLOUDY    72  72 100 CALM      29.98F
BOSCOBEL       LGT RAIN  78  71  79 CALM      29.96F HX  80
PRAIRIE DU CHI DRIZZLE   77  70  79 CALM      29.95F
PLATTEVILLE    FAIR      77  73  87 SW7       29.99S
$$

WIZ056-057-062-063-064-067-068-122200-
SOUTH CENTRAL WISCONSIN

CITY           SKY/WX    TMP DP  RH WIND       PRES   REMARKS
BARABOO/DELLS  CLOUDY    74  68  80 CALM      29.97F
LONE ROCK      LGT RAIN  80  72  76 CALM      29.96F HX  84
WATERTOWN      LGT RAIN  75  71  88 SW7       29.95F
MADISON        LGT RAIN  78  70  76 SW5       29.96S HX  80
MIDDLETON      FAIR      78  71  77 SW6       29.97F HX  81
MONROE         CLOUDY    77  70  78 SW8       29.98F
JANESVILLE     PTSUNNY   77  70  78 SW7       29.97F
$$

WIZ051-052-058>065-066-070>072-122200-
SOUTHEAST WISCONSIN

CITY           SKY/WX    TMP DP  RH WIND       PRES   REMARKS
MILWAUKEE      CLOUDY    77  69  76 SW15      29.96F
WAUKESHA       CLOUDY    73  70  88 SW10G16   29.98F
MILWAUKEE/TIMM CLOUDY    75  68  78 W12       29.97F
RACINE         CLOUDY    77  70  79 W10       29.97F
BURLINGTON     CLOUDY    75  69  82 W8G17     29.97S
KENOSHA        CLOUDY    78  72  81 W12       29.95F HX  80
FOND DU LAC    LGT RAIN  74  69  85 SW3       29.95F
SHEBOYGAN      CLOUDY    77  68  73 SW8       29.94F
WEST BEND      CLOUDY    73  64  73 W8G17     29.96F
JUNEAU         DRIZZLE   74  55  51 S8        29.97F
$$

LSZ147-162-122200-
LAKE SUPERIOR

STATION/POSITION TIME  TEMP    WIND        PRES    WAVE
                       AIR SEA DIR/SP/G            HT/PER
                 (UTC) (F)     (DEG/KT/KT) (MB)    (FT/S)
W MID LAKE BUOY  2050   46 39  210/  8/  8 1013.5F   0
PORT WING        2040   67      10/  2/  2 1013.5F
SAXON HARBOR     2000             CALM     1014.2F
$$

LMZ867-665-643>646-122200-
LAKE MICHIGAN

STATION/POSITION TIME  TEMP    WIND        PRES    WAVE
                       AIR SEA DIR/SP/G            HT/PER
                 (UTC) (F)     (DEG/KT/KT) (MB)    (FT/S)
N MID LAKE BUOY  2050   58 56  210/ 10/ 12 1012.8F   2/ 4
NORTHPORT PIER   2000   73     150/  5/ 11 1013.5F
KEWAUNEE LAKESHO 2000   55     150/  7/  8 1015.2F
SHEBOYGAN LAKESH 2100   72     190/  7/  9 1013.7F
PORT WASHINGTON  2040   77     240/  8/ 12 1014.6F
MILWAUKEE LAKESH 2000   75     230/ 12/ 16   N/A
S MID LAKE BUOY  2050   63 61  160/ 10/ 10 1014.8F   2/ 4
KENOSHA   LAKESH 2100   79     240/  7/ 12   N/A
$$

TC  - TEMPERATURE IN CELSIUS
VSB - VISIBILITY IN STATUTE MILES
WCI - WIND CHILL INDEX
HX  - HEAT INDEX



USA.gov is the U.S. government's official web portal to all federal, state and local government web resources and services.